Flag for Mongolia Weather past 2 weeks in Ulaanbaatar, Mongolia

Now
68 °F

Scattered clouds.


Feels Like: 68 °F
Forecast: 47 / 74 °F
Wind: 20 mph from Northwest

Location: Ulan-Bator

Current Time: Aug 2, 2015 at 6:22:34 PM

Latest Report: Aug 2, 2015 at 6:00 PM


Visibility: N/A

Pressure: 29.80 "Hg (25.62 "Hg at 1298m altitude)

Humidity: 43%

Dew point: 45 °F

Location of UlaanbaatarLocation

Historic Weather in Ulaanbaatar — Graph

°F

Ulaanbaatar temperature yesterday

Maximum temperature yesterday: 61 °F (at 12:00 AM)
Minimum temperature yesterday: 54 °F (at 9:30 PM)
Average temperature yesterday: 58 °F

Past Weeks' High & Low Weather Summary

 TemperatureHumidityPressure
High86 °F (Jul 23, 4:30 PM)94% (Jul 20, 12:00 AM)30.07 "Hg (Jul 20, 12:00 AM)
Low50 °F (Jul 23, 6:00 AM)21% (Jul 26, 6:30 PM)29.65 "Hg (Jul 27, 5:00 PM)
Average65 °F66%29.86 "Hg
* Reported Jul 18 5:00 PM — Aug 2 5:00 PM, Ulaanbaatar, Weather by CustomWeather, © 2015

Note: Actual official high and low records may vary slightly from our data, if they occured in-between our weather recording intervals... More about our weather records

Advertising

Ulaanbaatar weather history for previous 24 hours

 ConditionsComfort  
Time TempWeatherWind HumidityBarometerVisibility
5:00 PM
Sun, Aug 2
68 °FScattered clouds.20 mph46%29.80 "HgN/A
4:30 PM68 °FScattered clouds.22 mph43%29.83 "HgN/A
4:00 PM66 °FScattered clouds.17 mph43%29.83 "HgN/A
3:30 PM66 °FScattered clouds.15 mph49%29.83 "HgN/A
3:00 PM64 °FScattered clouds.17 mph49%29.83 "HgN/A
2:30 PM64 °FScattered clouds.17 mph56%29.86 "HgN/A
2:00 PM63 °FScattered clouds.17 mph52%29.86 "HgN/A
1:30 PM61 °FScattered clouds.15 mph52%29.89 "HgN/A
1:00 PM61 °FPartly sunny.15 mph59%29.89 "HgN/A
12:30 PM59 °FPartly sunny.15 mph59%29.89 "HgN/A
12:00 PM59 °FPartly sunny.13 mph59%29.89 "HgN/A
11:30 AM57 °FPartly sunny.13 mph67%29.89 "HgN/A
11:00 AM57 °FPartly sunny.15 mph67%29.89 "HgN/A
10:30 AM57 °FScattered clouds.15 mph67%29.89 "HgN/A
9:30 AM55 °FScattered clouds.3 mph77%29.92 "HgN/A
9:00 AM54 °FScattered clouds.6 mph77%29.92 "HgN/A
8:30 AM54 °FScattered clouds.10 mph77%29.92 "HgN/A
8:00 AM52 °FScattered clouds.6 mph82%29.89 "HgN/A
6:30 AM52 °FPassing clouds.1 mph82%29.89 "HgN/A
6:00 AM54 °FPassing clouds.6 mph77%29.89 "HgN/A
5:30 AM54 °FPassing clouds.6 mph77%29.89 "HgN/A
5:00 AM54 °FPassing clouds.8 mph77%29.86 "HgN/A
4:30 AM54 °FPassing clouds.3 mph82%29.89 "HgN/A
4:00 AM54 °FPassing clouds.8 mph82%29.89 "HgN/A
3:30 AM54 °FPassing clouds.6 mph82%29.89 "HgN/A
3:00 AM55 °FPassing clouds.8 mph77%29.89 "HgN/A
2:30 AM54 °FPassing clouds.8 mph82%29.89 "HgN/A
2:00 AM55 °FPassing clouds.13 mph82%29.89 "HgN/A
1:30 AM55 °FPassing clouds.8 mph82%29.89 "HgN/A
1:00 AM54 °FPassing clouds.3 mph88%29.89 "HgN/A
12:30 AM54 °FPassing clouds.6 mph88%29.89 "HgN/A
12:00 AM52 °FPassing clouds.3 mph88%29.89 "HgN/A
11:30 PM
Sat, Aug 1
54 °FPassing clouds.8 mph82%29.89 "HgN/A
11:00 PM54 °FPassing clouds.10 mph82%29.89 "HgN/A
10:30 PM54 °FSprinkles. Passing clouds.15 mph82%29.89 "HgN/A
10:00 PM55 °FSprinkles. Scattered clouds.13 mph77%29.86 "HgN/A
9:30 PM54 °FPartly sunny.8 mph82%29.86 "HgN/A
9:00 PM55 °FPartly sunny.13 mph77%29.86 "HgN/A
8:30 PM55 °FPartly sunny.13 mph77%29.86 "HgN/A
8:00 PM55 °FScattered showers. Partly sunny.17 mph77%29.83 "HgN/A
7:30 PM55 °FPartly sunny.15 mph77%29.83 "HgN/A
7:00 PM57 °FPartly sunny.15 mph72%29.83 "HgN/A
6:30 PM55 °FPartly sunny.15 mph77%29.83 "HgN/A
6:00 PM57 °FPartly sunny.17 mph72%29.83 "HgN/A
Weather by CustomWeather, © 2015

See weather overviewHow to use our weather pages